Simultaneous Nadir Overpasses (SNOs) Predictions

Prediction of SNOs between GOES-15 and TERRA Satellite Orbit:

Table of predicted SNOs for the next 14.0 days since TLE Epoch: 12/29/2012
Index Date Time (GOES-15) GOES-15 Lat,Lon TERRA Lat,Lon Distance(km) Time Diff (sec)
1 12/29/2012 07:15:51 0.04,-135.42 0.76,-131.93 396.89 80
2 12/29/2012 19:39:47 -0.02,-135.43 0.33,-137.09 187.70 80
3 12/31/2012 19:24:57 -0.02,-135.41 -0.29,-134.13 145.65 80
4 01/01/2013 07:49:00 0.00,-135.39 -0.85,-139.32 446.61 80
5 01/02/2013 19:12:47 -0.02,-135.39 -0.91,-131.18 478.47 80
6 01/03/2013 07:36:50 0.01,-135.37 -0.23,-136.36 114.08 80
7 01/05/2013 07:22:01 0.01,-135.33 0.40,-133.41 217.70 80
8 01/05/2013 19:43:16 0.00,-135.33 0.69,-138.57 368.43 80
9 01/07/2013 19:31:06 -0.00,-135.29 0.05,-135.62 37.73 80
10 01/09/2013 19:21:35 -0.01,-135.23 -0.53,-132.66 292.34 80
11 01/10/2013 07:42:59 -0.01,-135.21 -0.59,-137.84 300.00 80




NCC Satellite Simultaneous Nadir Overpasses (SNOs) Prediction Service
